Newberry, MI

2:41 AM EST on December 04, 2016 (GMT -0500)
Luce County

Weather History for KERY - May, 2013

Change the Weather History Date:

Sunday, May 12, 2013

  Actual Average Record
Temperature  
Mean Temperature 34 °F -  
Max Temperature 37 °F 60 °F 84 °F (1991)
Min Temperature 30 °F 38 °F 22 °F (1934)
Degree Days  
Heating Degree Days 32    
Moisture  
Dew Point 27 °F    
Average Humidity 76    
Maximum Humidity 100    
Minimum Humidity 60    
Precipitation  
Precipitation 0.00 in - - ()
Sea Level Pressure  
Sea Level Pressure 29.89 in    
Wind  
Wind Speed 15 mph (NW)    
Max Wind Speed 26 mph    
Max Gust Speed 39 mph    
Visibility 9 miles    
Events Rain , Snow    
Averages and records for this station are not official NWS values.
T = Trace of Precipitation, MM = Missing Value Source: NWS Daily Summary

Daily Weather History Graph

Daily Weather History Graph

Search for Another Location

Airport or City:

Trip Planner

Search our weather history database for the weather conditions in past years. The results will help you decide how hot, cold, wet, or windy it might be!

Date:

Astronomy

May. 12, 2013 Rise Set
Actual Time 6:12 AM EDT 9:05 PM EDT
Civil Twilight 5:37 AM EDT 9:40 PM EDT
Nautical Twilight 4:52 AM EDT 10:25 PM EDT
Astronomical Twilight 3:59 AM EDT 11:18 PM EDT
Moon 8:04 AM EDT (5/12) 11:33 PM EDT (5/12)
Length of Visible Light 16h 03m
Length of Day
14h 52m
Waxing Crescent, 6% of the Moon is Illuminated
May 12
Waxing Crescent
May 18
First Quarter
May 25
Full
May 31
Last Quarter
Jun 8
New

Hourly Weather History & Observations

Time (EDT) Temp. Windchill Dew Point Humidity Pressure Visibility Wind Dir Wind Speed Gust Speed Precip Events Conditions
12:14 AM 37.4 °F 28.5 °F 33.8 °F 87% 29.71 in 10.0 mi West 15.0 mph 20.7 mph N/A Rain Light Rain
12:35 AM 35.6 °F 27.1 °F 33.8 °F 93% 29.71 in 5.0 mi WNW 12.7 mph 20.7 mph N/A Rain Light Rain
12:54 AM 33.8 °F 24.3 °F 33.8 °F 100% 29.72 in 2.0 mi WNW 13.8 mph 17.3 mph N/A Snow Light Snow
1:14 AM 33.8 °F 25.8 °F 32.0 °F 93% 29.72 in 1.0 mi WNW 10.4 mph 16.1 mph N/A Snow Snow
1:35 AM 33.8 °F 25.8 °F 32.0 °F 93% 29.72 in 1.5 mi WNW 10.4 mph 18.4 mph N/A Snow Light Snow
1:54 AM 33.8 °F 25.3 °F 32.0 °F 93% 29.72 in 1.5 mi WNW 11.5 mph 17.3 mph N/A Snow Light Snow
2:15 AM 33.8 °F 24.8 °F 32.0 °F 93% 29.72 in 1.5 mi WNW 12.7 mph 18.4 mph N/A Snow Light Snow
2:35 AM 33.8 °F 25.3 °F 32.0 °F 93% 29.73 in 2.5 mi NW 11.5 mph 19.6 mph N/A Snow Light Snow
2:54 AM 33.8 °F 25.8 °F 32.0 °F 93% 29.73 in 1.5 mi NW 10.4 mph - N/A Snow Light Snow
3:15 AM 33.8 °F 23.5 °F 32.0 °F 93% 29.73 in 1.8 mi NW 16.1 mph 20.7 mph N/A Snow Light Snow
3:35 AM 33.8 °F 24.3 °F 32.0 °F 93% 29.74 in 3.0 mi NW 13.8 mph 19.6 mph N/A Snow Light Snow
3:54 AM 33.8 °F 25.8 °F 32.0 °F 93% 29.75 in 5.0 mi NW 10.4 mph 21.9 mph N/A Snow Light Snow
4:15 AM 33.8 °F 23.9 °F 32.0 °F 93% 29.75 in 10.0 mi NW 15.0 mph 23.0 mph N/A Snow Light Snow
4:34 AM 33.8 °F 23.2 °F 32.0 °F 93% 29.76 in 10.0 mi NW 17.3 mph 25.3 mph N/A   Overcast
4:54 AM 33.8 °F 24.8 °F 32.0 °F 93% 29.77 in 10.0 mi NW 12.7 mph 24.2 mph N/A   Overcast
5:34 AM 33.8 °F 24.3 °F 30.2 °F 87% 29.79 in 10.0 mi NW 13.8 mph 25.3 mph N/A   Overcast
5:54 AM 33.8 °F 23.2 °F 30.2 °F 87% 29.80 in 10.0 mi NW 17.3 mph 26.5 mph N/A   Overcast
6:14 AM 33.8 °F 24.3 °F 30.2 °F 87% 29.80 in 10.0 mi NNW 13.8 mph 24.2 mph N/A   Overcast
6:34 AM 33.8 °F 22.8 °F 30.2 °F 87% 29.80 in 10.0 mi NNW 18.4 mph 24.2 mph N/A   Overcast
6:55 AM 33.8 °F 23.9 °F 28.4 °F 81% 29.81 in 10.0 mi NW 15.0 mph 29.9 mph N/A   Overcast
7:14 AM 33.8 °F 24.3 °F 28.4 °F 81% 29.82 in 10.0 mi NW 13.8 mph 24.2 mph N/A   Overcast
7:34 AM 32.0 °F 21.2 °F 28.4 °F 87% 29.82 in 10.0 mi NW 16.1 mph 24.2 mph N/A   Overcast
7:55 AM 32.0 °F 23.6 °F 28.4 °F 87% 29.83 in 5.0 mi NW 10.4 mph 26.5 mph N/A Snow Light Snow
8:14 AM 32.0 °F 20.8 °F 28.4 °F 87% 29.83 in 10.0 mi NW 17.3 mph 26.5 mph N/A Snow Light Snow
8:35 AM 32.0 °F 21.6 °F 26.6 °F 80% 29.83 in 10.0 mi NW 15.0 mph 24.2 mph N/A   Overcast
8:55 AM 32.0 °F 19.2 °F 26.6 °F 80% 29.84 in 10.0 mi NW 23.0 mph 29.9 mph N/A   Overcast
9:14 AM 32.0 °F 19.8 °F 26.6 °F 80% 29.84 in 10.0 mi NW 20.7 mph 27.6 mph N/A   Overcast
9:35 AM 32.0 °F 20.8 °F 26.6 °F 80% 29.85 in 10.0 mi WNW 17.3 mph 31.1 mph N/A   Overcast
9:55 AM 32.0 °F 23.0 °F 24.8 °F 75% 29.85 in 10.0 mi NW 11.5 mph 28.8 mph N/A   Overcast
10:14 AM 32.0 °F 19.5 °F 24.8 °F 75% 29.86 in 10.0 mi NW 21.9 mph 33.4 mph N/A   Overcast
10:35 AM 33.8 °F 22.5 °F 26.6 °F 75% 29.86 in 10.0 mi NW 19.6 mph 34.5 mph N/A   Overcast
10:54 AM 33.8 °F 23.2 °F 24.8 °F 70% 29.86 in 10.0 mi NW 17.3 mph 33.4 mph N/A   Overcast
11:14 AM 33.8 °F 22.8 °F 24.8 °F 70% 29.87 in 10.0 mi NW 18.4 mph 29.9 mph N/A   Overcast
11:35 AM 33.8 °F 22.8 °F 24.8 °F 70% 29.88 in 10.0 mi NW 18.4 mph 34.5 mph N/A   Overcast
11:54 AM 33.8 °F 20.8 °F 24.8 °F 70% 29.89 in 10.0 mi WNW 26.5 mph 34.5 mph N/A   Overcast
12:14 PM 35.6 °F 25.2 °F 24.8 °F 65% 29.90 in 10.0 mi WNW 18.4 mph 31.1 mph N/A   Overcast
12:35 PM 35.6 °F 24.5 °F 26.6 °F 70% 29.90 in 10.0 mi NNW 20.7 mph 31.1 mph N/A   Overcast
12:54 PM 35.6 °F 25.9 °F 24.8 °F 65% 29.91 in 10.0 mi WNW 16.1 mph 27.6 mph N/A   Overcast
1:15 PM 35.6 °F 23.7 °F 24.8 °F 65% 29.92 in 10.0 mi NW 24.2 mph 36.8 mph N/A   Overcast
1:35 PM 35.6 °F 25.5 °F 24.8 °F 65% 29.93 in 10.0 mi WNW 17.3 mph 39.1 mph N/A   Overcast
2:15 PM 35.6 °F 25.2 °F 24.8 °F 65% 29.94 in 10.0 mi NW 18.4 mph 33.4 mph N/A   Overcast
2:35 PM 35.6 °F 24.0 °F 24.8 °F 65% 29.94 in 10.0 mi WNW 23.0 mph 32.2 mph N/A   Overcast
2:54 PM 35.6 °F 25.2 °F 24.8 °F 65% 29.94 in 10.0 mi NW 18.4 mph 31.1 mph N/A   Overcast
3:15 PM 37.4 °F 28.2 °F 24.8 °F 60% 29.94 in 10.0 mi NW 16.1 mph 34.5 mph N/A   Overcast
3:35 PM 37.4 °F 25.6 °F 24.8 °F 60% 29.95 in 10.0 mi NW 26.5 mph 29.9 mph N/A   Overcast
3:54 PM 37.4 °F 28.2 °F 24.8 °F 60% 29.95 in 10.0 mi NNW 16.1 mph 28.8 mph N/A   Overcast
4:15 PM 37.4 °F 27.8 °F 24.8 °F 60% 29.96 in 10.0 mi WNW 17.3 mph 32.2 mph N/A   Overcast
4:34 PM 37.4 °F 27.8 °F 24.8 °F 60% 29.96 in 10.0 mi NW 17.3 mph 29.9 mph N/A   Overcast
4:54 PM 37.4 °F 27.5 °F 24.8 °F 60% 29.97 in 10.0 mi NW 18.4 mph 34.5 mph N/A   Overcast
5:15 PM 35.6 °F 24.8 °F 24.8 °F 65% 29.97 in 10.0 mi WNW 19.6 mph 29.9 mph N/A   Overcast
5:34 PM 35.6 °F 25.2 °F 24.8 °F 65% 29.98 in 10.0 mi NW 18.4 mph 28.8 mph N/A   Overcast
5:54 PM 35.6 °F 25.5 °F 24.8 °F 65% 29.99 in 10.0 mi NW 17.3 mph 25.3 mph N/A   Overcast
6:15 PM 35.6 °F 28.0 °F 24.8 °F 65% 30.00 in 10.0 mi WNW 10.4 mph 20.7 mph N/A   Overcast
6:34 PM 35.6 °F 28.0 °F 24.8 °F 65% 30.01 in 10.0 mi WNW 10.4 mph 26.5 mph N/A   Overcast
6:55 PM 37.4 °F 27.5 °F 24.8 °F 60% 30.01 in 10.0 mi WNW 18.4 mph 26.5 mph N/A   Overcast
7:15 PM 35.6 °F 25.5 °F 24.8 °F 65% 30.01 in 10.0 mi NW 17.3 mph 29.9 mph N/A   Overcast
7:34 PM 37.4 °F 28.9 °F 24.8 °F 60% 30.01 in 10.0 mi WNW 13.8 mph 25.3 mph N/A   Mostly Cloudy
7:55 PM 35.6 °F 25.5 °F 23.0 °F 60% 30.02 in 10.0 mi NW 17.3 mph 23.0 mph N/A   Scattered Clouds
8:14 PM 35.6 °F 28.6 °F 24.8 °F 65% 30.02 in 10.0 mi WNW 9.2 mph 23.0 mph N/A   Mostly Cloudy
8:34 PM 35.6 °F 26.2 °F 24.8 °F 65% 30.02 in 10.0 mi WNW 15.0 mph 24.2 mph N/A   Overcast
8:54 PM 35.6 °F 28.6 °F 24.8 °F 65% 30.03 in 10.0 mi WNW 9.2 mph 18.4 mph N/A   Overcast
9:14 PM 33.8 °F 25.8 °F 24.8 °F 70% 30.03 in 10.0 mi WNW 10.4 mph 16.1 mph N/A   Overcast
9:35 PM 33.8 °F 27.0 °F 24.8 °F 70% 30.03 in 10.0 mi WNW 8.1 mph 17.3 mph N/A   Overcast
9:54 PM 33.8 °F 27.0 °F 24.8 °F 70% 30.03 in 10.0 mi WNW 8.1 mph - N/A   Mostly Cloudy
10:14 PM 32.0 °F 25.6 °F 24.8 °F 75% 30.03 in 10.0 mi West 6.9 mph - N/A   Mostly Cloudy
10:35 PM 30.2 °F 24.3 °F 24.8 °F 80% 30.03 in 10.0 mi West 5.8 mph - N/A   Mostly Cloudy
10:54 PM 30.2 °F 24.3 °F 24.8 °F 80% 30.03 in 10.0 mi West 5.8 mph - N/A   Scattered Clouds
11:14 PM 30.2 °F 22.6 °F 24.8 °F 80% 30.03 in 10.0 mi West 8.1 mph - N/A   Clear
11:35 PM 30.2 °F 21.9 °F 24.8 °F 80% 30.03 in 10.0 mi West 9.2 mph - N/A   Clear
11:54 PM 30.2 °F 21.9 °F 26.6 °F 86% 30.02 in 10.0 mi West 9.2 mph - N/A   Clear